| time (UTC) | temp F | wind direction | speed knots | gust knots | rain 1hr in | rain 24hr in | rain mn in | humidity % | barometer mb |
| 20260906125852 | 60 | 230 | 10.4 | 18.2 | 0.03 | 0.08 | 0.08 | 91 | 1016.7 |
| 20260906125352 | 60 | 210 | 11.3 | 18.2 | 0.04 | 0.08 | 0.08 | 92 | 1016.3 |
| 20260906124850 | 60 | 180 | 7.8 | 17.4 | 0.04 | 0.08 | 0.08 | 92 | 1016.4 |
| 20260906123832 | 60 | 173 | 12.2 | 18.2 | 0.04 | 0.08 | 0.08 | 91 | 1016.7 |
| 20260906123337 | 60 | 227 | 11.3 | 15.6 | 0.04 | 0.08 | 0.07 | 91 | 1016.8 |
| 20260906122809 | 60 | 212 | 9.6 | 18.2 | 0.03 | 0.07 | 0.07 | 91 | 1017.1 |
| 20260906122307 | 59 | 209 | 9.6 | 18.2 | 0.03 | 0.07 | 0.07 | 91 | 1017.2 |
| 20260906121257 | 59 | 254 | 9.6 | 19.1 | 0.02 | 0.06 | 0.06 | 90 | 1017.4 |
| 20260906120750 | 59 | 203 | 7.8 | 17.4 | 0.02 | 0.06 | 0.06 | 89 | 1017.4 |
| 20260906120249 | 59 | 183 | 7.8 | 17.4 | 0.02 | 0.06 | 0.05 | 89 | 1017.5 |
| 20260906115749 | 59 | 213 | 8.7 | 18.2 | 0.02 | 0.05 | 0.05 | 88 | 1017.5 |
| 20260906114733 | 59 | 188 | 10.4 | 19.1 | 0.02 | 0.04 | 0.04 | 88 | 1017.4 |
| 20260906114235 | 59 | 169 | 11.3 | 18.2 | 0.03 | 0.04 | 0.04 | 88 | 1017.6 |
| 20260906113232 | 59 | 179 | 12.2 | 19.1 | 0.04 | 0.04 | 0.04 | 87 | 1017.9 |
| 20260906112732 | 59 | 193 | 11.3 | 18.2 | 0.04 | 0.04 | 0.04 | 88 | 1017.9 |
| 20260906112231 | 59 | 221 | 11.3 | 19.1 | 0.04 | 0.04 | 0.04 | 88 | 1018.0 |
| 20260906111730 | 59 | 195 | 11.3 | 19.1 | 0.04 | 0.04 | 0.04 | 89 | 1018.1 |
| 20260906111231 | 59 | 227 | 7.8 | 14.8 | 0.04 | 0.04 | 0.04 | 89 | 1018.2 |
| 20260906110719 | 59 | 221 | 9.6 | 15.6 | 0.04 | 0.04 | 0.04 | 88 | 1018.2 |
| 20260906105706 | 59 | 202 | 10.4 | 20.0 | 0.03 | 0.03 | 0.03 | 86 | 1018.2 |
| 20260906105207 | 60 | 226 | 7.8 | 13.0 | 0.02 | 0.02 | 0.02 | 84 | 1018.3 |
| 20260906104703 | 60 | 228 | 7.0 | 20.9 | 0.02 | 0.02 | 0.02 | 82 | 1018.2 |
| 20260906104203 | 61 | 219 | 9.6 | 20.9 | 0.01 | 0.01 | 0.01 | 79 | 1018.3 |
| 20260906103650 | 62 | 298 | 10.4 | 19.1 | 0.00 | 0.00 | 0.00 | 78 | 1018.3 |
| 20260906103133 | 63 | 217 | 10.4 | 19.1 | 0.00 | 0.00 | 0.00 | 75 | 1018.3 |
| 20260906102633 | 63 | 264 | 8.7 | 26.1 | 0.00 | 0.00 | 0.00 | 71 | 1018.4 |
| 20260906102132 | 64 | 217 | 12.2 | 26.1 | 0.00 | 0.00 | 0.00 | 71 | 1018.4 |
| 20260906101622 | 64 | 189 | 7.0 | 18.2 | 0.00 | 0.00 | 0.00 | 71 | 1018.5 |
| 20260906101111 | 64 | 243 | 9.6 | 19.1 | 0.00 | 0.00 | 0.00 | 71 | 1018.5 |
| 20260906100610 | 64 | 202 | 9.6 | 20.9 | 0.00 | 0.00 | 0.00 | 71 | 1018.5 |
| 20260906100105 | 64 | 216 | 11.3 | 20.9 | 0.00 | 0.00 | 0.00 | 72 | 1018.4 |
| 20260906095606 | 63 | 221 | 11.3 | 20.0 | 0.00 | 0.00 | 0.00 | 72 | 1018.4 |
| 20260906094610 | 64 | 247 | 9.6 | 20.0 | 0.00 | 0.00 | 0.00 | 70 | 1018.5 |
| 20260906094106 | 64 | 216 | 8.7 | 21.7 | 0.00 | 0.00 | 0.00 | 67 | 1018.5 |
| 20260906093606 | 64 | 219 | 9.6 | 21.7 | 0.00 | 0.00 | 0.00 | 67 | 1018.6 |
| 20260906093104 | 65 | 175 | 7.8 | 16.5 | 0.00 | 0.00 | 0.00 | 68 | 1018.5 |
| 20260906092048 | 65 | 233 | 7.0 | 11.3 | 0.00 | 0.00 | 0.00 | 68 | 1018.5 |
| 20260906091548 | 65 | 166 | 5.2 | 13.0 | 0.00 | 0.00 | 0.00 | 68 | 1018.4 |
| 20260906091052 | 65 | 196 | 7.0 | 13.0 | 0.00 | 0.00 | 0.00 | 68 | 1018.5 |
| 20260906090549 | 65 | 207 | 7.8 | 13.0 | 0.00 | 0.00 | 0.00 | 66 | 1018.5 |
| 20260906090050 | 65 | 209 | 7.0 | 11.3 | 0.00 | 0.00 | 0.00 | 66 | 1018.5 |
| 20260906085550 | 65 | 228 | 7.0 | 12.2 | 0.00 | 0.00 | 0.00 | 66 | 1018.7 |
| 20260906085050 | 65 | 203 | 7.8 | 12.2 | 0.00 | 0.00 | 0.00 | 66 | 1018.7 |
| 20260906084550 | 65 | 214 | 5.2 | 14.8 | 0.00 | 0.00 | 0.00 | 66 | 1018.6 |
| 20260906083551 | 65 | 202 | 2.6 | 10.4 | 0.00 | 0.00 | 0.00 | 68 | 1018.7 |
| 20260906082053 | 62 | 231 | 2.6 | 9.6 | 0.00 | 0.00 | 0.00 | 72 | 1018.9 |
| 20260906081550 | 62 | 224 | 5.2 | 12.2 | 0.00 | 0.00 | 0.00 | 73 | 1018.8 |
| 20260906081052 | 62 | 183 | 6.1 | 13.0 | 0.00 | 0.00 | 0.00 | 73 | 1018.8 |
| 20260906080550 | 62 | 196 | 7.0 | 13.0 | 0.00 | 0.00 | 0.00 | 74 | 1018.9 |
| 20260906080053 | 62 | 159 | 5.2 | 12.2 | 0.00 | 0.00 | 0.00 | 74 | 1018.9 |
| 20260906075051 | 61 | 207 | 7.0 | 13.0 | 0.00 | 0.00 | 0.00 | 77 | 1019.1 |
| 20260906074549 | 60 | 247 | 4.3 | 7.8 | 0.00 | 0.00 | 0.00 | 77 | 1019.2 |
| 20260906074051 | 60 | 276 | 1.7 | 12.2 | 0.00 | 0.00 | 0.00 | 77 | 1019.3 |
| 20260906073548 | 60 | 159 | 4.3 | 12.2 | 0.00 | 0.00 | 0.00 | 77 | 1019.4 |
| 20260906073050 | 59 | 192 | 6.1 | 11.3 | 0.00 | 0.00 | 0.00 | 77 | 1019.4 |
| 20260906072051 | 59 | 199 | 7.0 | 12.2 | 0.00 | 0.00 | 0.00 | 77 | 1019.5 |
| 20260906071550 | 59 | 175 | 6.1 | 13.0 | 0.00 | 0.00 | 0.00 | 78 | 1019.5 |
| 20260906070552 | 59 | 221 | 8.7 | 13.9 | 0.00 | 0.00 | 0.00 | 79 | 1019.6 |
| 20260906070051 | 59 | 240 | 7.0 | 13.9 | 0.00 | 0.00 | 0.00 | 79 | 1019.5 |
| 20260906065551 | 58 | 195 | 7.8 | 13.9 | 0.00 | 0.00 | 0.00 | 79 | 1019.6 |
| 20260906064550 | 58 | 180 | 8.7 | 13.9 | 0.00 | 0.00 | 0.00 | 79 | 1019.7 |
| 20260906064050 | 58 | 144 | 7.8 | 13.9 | 0.00 | 0.00 | 0.00 | 79 | 1019.8 |
| 20260906063550 | 58 | 188 | 6.1 | 13.0 | 0.00 | 0.00 | 0.00 | 79 | 1019.9 |
| 20260906062556 | 58 | 180 | 5.2 | 15.6 | 0.00 | 0.00 | 0.00 | 79 | 1020.0 |
| 20260906062053 | 58 | 182 | 6.1 | 15.6 | 0.00 | 0.00 | 0.00 | 79 | 1020.0 |
| 20260906061550 | 58 | 185 | 10.4 | 15.6 | 0.00 | 0.00 | 0.00 | 80 | 1020.0 |
| 20260906061050 | 57 | 165 | 9.6 | 15.6 | 0.00 | 0.00 | 0.00 | 80 | 1020.1 |
| 20260906055551 | 57 | 179 | 7.8 | 14.8 | 0.00 | 0.00 | 0.00 | 80 | 1020.0 |
| 20260906055051 | 57 | 185 | 7.8 | 13.0 | 0.00 | 0.00 | 0.00 | 81 | 1020.0 |
| 20260906054551 | 56 | 148 | 8.7 | 13.9 | 0.00 | 0.00 | 0.00 | 81 | 1020.2 |
| 20260906053550 | 56 | 221 | 4.3 | 10.4 | 0.00 | 0.00 | 0.00 | 82 | 1020.2 |
| 20260906053050 | 56 | 171 | 6.1 | 9.6 | 0.00 | 0.00 | 0.00 | 82 | 1020.4 |
| 20260906052552 | 56 | 172 | 4.3 | 9.6 | 0.00 | 0.00 | 0.00 | 82 | 1020.4 |
| 20260906052050 | 56 | 189 | 4.3 | 13.0 | 0.00 | 0.00 | 0.00 | 83 | 1020.5 |
| 20260906051550 | 56 | 179 | 6.1 | 14.8 | 0.00 | 0.00 | 0.00 | 83 | 1020.6 |
| 20260906051051 | 55 | 157 | 2.6 | 14.8 | 0.00 | 0.00 | 0.00 | 83 | 1020.6 |
| 20260906050550 | 55 | 192 | 3.5 | 12.2 | 0.00 | 0.00 | 0.00 | 83 | 1020.6 |
| 20260906050051 | 55 | 164 | 2.6 | 7.0 | 0.00 | 0.00 | 0.00 | 83 | 1020.6 |
| 20260906045550 | 55 | 182 | 2.6 | 7.8 | 0.00 | 0.00 | 0.00 | 83 | 1020.7 |
| 20260906045048 | 55 | 193 | 2.6 | 7.8 | 0.00 | 0.00 | 0.00 | 83 | 1020.8 |
| 20260906044050 | 55 | 125 | 4.3 | 10.4 | 0.00 | 0.00 | 0.00 | 84 | 1020.9 |
| 20260906043550 | 55 | 204 | 4.3 | 7.0 | 0.00 | 0.00 | 0.00 | 84 | 1020.9 |
| 20260906043050 | 55 | 185 | 2.6 | 6.1 | 0.00 | 0.00 | 0.00 | 85 | 1021.0 |
| 20260906042551 | 55 | 123 | 2.6 | 6.1 | 0.00 | 0.00 | 0.00 | 85 | 1021.0 |
| 20260906042051 | 55 | 185 | 2.6 | 7.0 | 0.00 | 0.00 | 0.00 | 85 | 1021.1 |
| 20260906041550 | 55 | 197 | 3.5 | 7.0 | 0.00 | 0.00 | 0.00 | 85 | 1021.2 |
| 20260906041051 | 54 | 235 | 2.6 | 9.6 | 0.00 | 0.00 | 0.00 | 86 | 1021.2 |
| 20260906040533 | 54 | 178 | 4.3 | 12.2 | 0.00 | 0.00 | 0.00 | 86 | 1021.2 |
| 20260906040034 | 54 | 258 | 5.2 | 12.2 | 0.00 | 0.00 | 0.00 | 86 | 1021.3 |
| 20260906035033 | 54 | 224 | 5.2 | 9.6 | 0.00 | 0.00 | 0.00 | 86 | 1021.3 |
| 20260906034531 | 54 | 278 | 2.6 | 12.2 | 0.00 | 0.00 | 0.00 | 86 | 1021.3 |
| 20260906034032 | 54 | 272 | 1.7 | 12.2 | 0.00 | 0.00 | 0.00 | 86 | 1021.2 |
| 20260906033531 | 54 | 262 | 1.7 | 7.0 | 0.00 | 0.00 | 0.00 | 85 | 1021.2 |
| 20260906033030 | 54 | 200 | 3.5 | 7.0 | 0.00 | 0.00 | 0.00 | 84 | 1021.3 |
| 20260906032537 | 54 | 196 | 1.7 | 7.0 | 0.00 | 0.00 | 0.00 | 84 | 1021.5 |
| 20260906032028 | 54 | 275 | 0.9 | 7.0 | 0.00 | 0.00 | 0.00 | 84 | 1021.5 |
| 20260906031532 | 55 | 221 | 0.0 | 6.1 | 0.00 | 0.00 | 0.00 | 84 | 1021.5 |
| 20260906031007 | 55 | 252 | 0.0 | 5.2 | 0.00 | 0.00 | 0.00 | 84 | 1021.5 |
| 20260906030512 | 55 | 204 | 2.6 | 9.6 | 0.00 | 0.00 | 0.00 | 84 | 1021.7 |
| 20260906030013 | 55 | 252 | 3.5 | 13.0 | 0.00 | 0.00 | 0.00 | 84 | 1021.7 |
| 20260906024953 | 55 | 189 | 5.2 | 11.3 | 0.00 | 0.00 | 0.00 | 85 | 1021.9 |
| 20260906024448 | 55 | 220 | 5.2 | 9.6 | 0.00 | 0.00 | 0.00 | 84 | 1022.0 |
| 20260906023949 | 55 | 196 | 5.2 | 9.6 | 0.00 | 0.00 | 0.00 | 84 | 1022.2 |
| 20260906023448 | 55 | 221 | 3.5 | 7.0 | 0.00 | 0.00 | 0.00 | 84 | 1022.2 |
| 20260906022936 | 55 | 244 | 3.5 | 7.8 | 0.00 | 0.00 | 0.00 | 84 | 1022.2 |
| 20260906022422 | 55 | 206 | 4.3 | 7.8 | 0.00 | 0.00 | 0.00 | 84 | 1022.2 |
| 20260906021908 | 55 | 207 | 1.7 | 7.8 | 0.00 | 0.00 | 0.00 | 84 | 1022.3 |
| 20260906021404 | 54 | 183 | 3.5 | 10.4 | 0.00 | 0.00 | 0.00 | 85 | 1022.2 |
| 20260906020903 | 54 | 216 | 4.3 | 10.4 | 0.00 | 0.00 | 0.00 | 85 | 1022.1 |
| 20260906020404 | 54 | 200 | 5.2 | 10.4 | 0.00 | 0.00 | 0.00 | 85 | 1022.3 |
| 20260906015352 | 54 | 188 | 3.5 | 10.4 | 0.00 | 0.00 | 0.00 | 85 | 1022.3 |
| 20260906014348 | 54 | 197 | 5.2 | 9.6 | 0.00 | 0.00 | 0.00 | 84 | 1022.6 |
| 20260906013850 | 54 | 176 | 4.3 | 9.6 | 0.00 | 0.00 | 0.00 | 84 | 1022.6 |
| 20260906012844 | 54 | 179 | 3.5 | 9.6 | 0.00 | 0.00 | 0.00 | 83 | 1022.8 |
| 20260906012334 | 54 | 207 | 3.5 | 9.6 | 0.00 | 0.00 | 0.00 | 83 | 1022.8 |
| 20260906011834 | 54 | 183 | 3.5 | 9.6 | 0.00 | 0.00 | 0.00 | 83 | 1023.0 |
| 20260906011315 | 54 | 203 | 3.5 | 7.8 | 0.00 | 0.00 | 0.00 | 83 | 1023.1 |
| 20260906010807 | 54 | 190 | 5.2 | 7.8 | 0.00 | 0.00 | 0.00 | 83 | 1023.1 |
| 20260906010304 | 54 | 186 | 5.2 | 9.6 | 0.00 | 0.00 | 0.00 | 83 | 1023.2 |
| 20260906005806 | 54 | 180 | 4.3 | 12.2 | 0.00 | 0.00 | 0.00 | 83 | 1023.2 |
| 20260906005306 | 54 | 221 | 6.1 | 12.2 | 0.00 | 0.00 | 0.00 | 84 | 1023.1 |
| 20260906004803 | 53 | 190 | 6.1 | 12.2 | 0.00 | 0.00 | 0.00 | 86 | 1023.3 |
| 20260906004252 | 53 | 179 | 5.2 | 10.4 | 0.00 | 0.00 | 0.00 | 86 | 1023.4 |
| 20260906003748 | 53 | 190 | 5.2 | 13.0 | 0.00 | 0.00 | 0.00 | 87 | 1023.4 |
| 20260906003248 | 52 | 200 | 6.1 | 13.0 | 0.00 | 0.00 | 0.00 | 88 | 1023.3 |
| 20260906002733 | 52 | 196 | 3.5 | 7.0 | 0.00 | 0.00 | 0.00 | 87 | 1023.4 |
| 20260906001732 | 51 | 176 | 2.6 | 6.1 | 0.00 | 0.00 | 0.00 | 87 | 1023.4 |
| 20260906001230 | 51 | 195 | 1.7 | 5.2 | 0.00 | 0.00 | 0.00 | 87 | 1023.4 |
| 20260906000732 | 51 | 224 | 1.7 | 4.3 | 0.00 | 0.00 | 0.00 | 87 | 1023.5 |
| 20260905235202 | 51 | 224 | 0.9 | 3.5 | 0.00 | 0.00 | 0.00 | 86 | 1023.6 |
| 20260905234704 | 52 | 224 | 0.9 | 3.5 | 0.00 | 0.00 | 0.00 | 85 | 1023.5 |
| 20260905234159 | 52 | 224 | 1.7 | 3.5 | 0.00 | 0.00 | 0.00 | 85 | 1023.5 |
| 20260905233648 | 52 | 248 | 1.7 | 3.5 | 0.00 | 0.00 | 0.00 | 85 | 1023.5 |
| 20260905233149 | 52 | 248 | 0.0 | 1.7 | 0.00 | 0.00 | 0.00 | 84 | 1023.6 |
| 20260905232649 | 52 | 248 | 0.0 | 1.7 | 0.00 | 0.00 | 0.00 | 84 | 1023.7 |
| 20260905232151 | 53 | 248 | 0.0 | 1.7 | 0.00 | 0.00 | 0.00 | 83 | 1023.8 |
| 20260905231649 | 53 | 248 | 0.0 | 1.7 | 0.00 | 0.00 | 0.00 | 83 | 1023.8 |
| 20260905231147 | 53 | 248 | 0.0 | 2.6 | 0.00 | 0.00 | 0.00 | 83 | 1023.9 |
| 20260905230647 | 54 | 248 | 0.0 | 2.6 | 0.00 | 0.00 | 0.00 | 83 | 1024.0 |
| 20260905230149 | 54 | 248 | 0.9 | 2.6 | 0.00 | 0.00 | 0.00 | 82 | 1023.9 |
| 20260905225648 | 54 | 248 | 0.0 | 2.6 | 0.00 | 0.00 | 0.00 | 82 | 1023.9 |
| 20260905225149 | 54 | 248 | 0.0 | 3.5 | 0.00 | 0.00 | 0.00 | 81 | 1023.8 |
| 20260905224647 | 55 | 248 | 0.0 | 3.5 | 0.00 | 0.00 | 0.00 | 81 | 1023.8 |
| 20260905224149 | 55 | 248 | 1.7 | 4.3 | 0.00 | 0.00 | 0.00 | 81 | 1023.8 |
| 20260905223648 | 55 | 248 | 1.7 | 4.3 | 0.00 | 0.00 | 0.00 | 81 | 1023.8 |
| 20260905223153 | 55 | 248 | 0.9 | 3.5 | 0.00 | 0.00 | 0.00 | 81 | 1023.8 |
| 20260905222634 | 55 | 248 | 0.0 | 2.6 | 0.00 | 0.00 | 0.00 | 81 | 1024.0 |
| 20260905221133 | 56 | 234 | 3.5 | 7.8 | 0.00 | 0.00 | 0.00 | 80 | 1024.0 |
| 20260905220635 | 56 | 230 | 5.2 | 7.8 | 0.00 | 0.00 | 0.00 | 80 | 1024.0 |
| 20260905220133 | 56 | 266 | 2.6 | 5.2 | 0.00 | 0.00 | 0.00 | 80 | 1024.1 |
| 20260905215632 | 56 | 244 | 1.7 | 3.5 | 0.00 | 0.00 | 0.00 | 79 | 1024.1 |
| 20260905215134 | 57 | 244 | 0.9 | 3.5 | 0.00 | 0.00 | 0.00 | 79 | 1024.2 |
| 20260905214631 | 57 | 244 | 0.0 | 3.5 | 0.00 | 0.00 | 0.00 | 79 | 1024.1 |
| 20260905214131 | 57 | 244 | 0.0 | 3.5 | 0.00 | 0.00 | 0.00 | 78 | 1024.1 |
| 20260905213611 | 57 | 244 | 0.9 | 3.5 | 0.00 | 0.00 | 0.00 | 78 | 1024.1 |
| 20260905213108 | 58 | 244 | 0.0 | 3.5 | 0.00 | 0.00 | 0.00 | 78 | 1024.2 |
| 20260905212604 | 58 | 244 | 0.0 | 3.5 | 0.00 | 0.00 | 0.00 | 78 | 1024.3 |
| 20260905211607 | 58 | 245 | 2.6 | 6.1 | 0.00 | 0.00 | 0.00 | 77 | 1024.3 |
| 20260905211105 | 58 | 269 | 2.6 | 6.1 | 0.00 | 0.00 | 0.00 | 77 | 1024.1 |
| 20260905210050 | 58 | 214 | 0.9 | 6.1 | 0.00 | 0.00 | 0.00 | 77 | 1024.1 |
| 20260905205549 | 59 | 223 | 1.7 | 7.8 | 0.00 | 0.00 | 0.00 | 77 | 1023.8 |
| 20260905204550 | 59 | 207 | 3.5 | 9.6 | 0.00 | 0.00 | 0.00 | 77 | 1023.7 |
| 20260905203049 | 59 | 228 | 4.3 | 11.3 | 0.00 | 0.00 | 0.00 | 77 | 1023.3 |
| 20260905202549 | 59 | 203 | 6.1 | 11.3 | 0.00 | 0.00 | 0.00 | 78 | 1023.2 |
| 20260905202050 | 59 | 166 | 3.5 | 7.0 | 0.00 | 0.00 | 0.00 | 78 | 1023.5 |
| 20260905201049 | 60 | 144 | 3.5 | 9.6 | 0.00 | 0.00 | 0.00 | 78 | 1023.7 |
| 20260905200049 | 60 | 241 | 5.2 | 9.6 | 0.00 | 0.00 | 0.00 | 78 | 1023.7 |
| 20260905195548 | 60 | 172 | 3.5 | 7.0 | 0.00 | 0.00 | 0.00 | 78 | 1023.8 |
| 20260905195049 | 60 | 206 | 2.6 | 7.0 | 0.00 | 0.00 | 0.00 | 78 | 1023.7 |
| 20260905194548 | 60 | 230 | 2.6 | 7.0 | 0.00 | 0.00 | 0.00 | 78 | 1023.8 |
| 20260905194050 | 60 | 169 | 2.6 | 7.8 | 0.00 | 0.00 | 0.00 | 77 | 1023.7 |
| 20260905193550 | 60 | 207 | 3.5 | 11.3 | 0.00 | 0.00 | 0.00 | 77 | 1023.7 |
| 20260905193049 | 60 | 238 | 7.0 | 11.3 | 0.00 | 0.00 | 0.00 | 77 | 1023.5 |
| 20260905192550 | 60 | 204 | 4.3 | 7.0 | 0.00 | 0.00 | 0.00 | 76 | 1023.4 |
| 20260905192054 | 60 | 176 | 4.3 | 7.8 | 0.00 | 0.00 | 0.00 | 76 | 1023.3 |
| 20260905191549 | 60 | 220 | 3.5 | 7.8 | 0.00 | 0.00 | 0.00 | 76 | 1023.1 |
| 20260905190548 | 60 | 193 | 4.3 | 7.0 | 0.00 | 0.00 | 0.00 | 76 | 1023.4 |
| 20260905185049 | 61 | 207 | 4.3 | 10.4 | 0.00 | 0.00 | 0.00 | 75 | 1023.3 |
| 20260905184550 | 61 | 223 | 5.2 | 9.6 | 0.00 | 0.00 | 0.00 | 75 | 1023.2 |
| 20260905184049 | 61 | 183 | 3.5 | 7.8 | 0.00 | 0.00 | 0.00 | 74 | 1023.1 |
| 20260905183549 | 61 | 209 | 4.3 | 10.4 | 0.00 | 0.00 | 0.00 | 74 | 1023.0 |
| 20260905183047 | 62 | 220 | 4.3 | 10.4 | 0.00 | 0.00 | 0.00 | 73 | 1022.9 |
| 20260905182547 | 62 | 199 | 3.5 | 6.1 | 0.00 | 0.00 | 0.00 | 73 | 1023.1 |
| 20260905182050 | 62 | 209 | 3.5 | 6.1 | 0.00 | 0.00 | 0.00 | 72 | 1023.1 |
| 20260905181549 | 62 | 210 | 3.5 | 10.4 | 0.00 | 0.00 | 0.00 | 72 | 1023.1 |
| 20260905181049 | 62 | 230 | 5.2 | 12.2 | 0.00 | 0.00 | 0.00 | 71 | 1023.1 |
| 20260905180549 | 63 | 220 | 6.1 | 16.5 | 0.00 | 0.00 | 0.00 | 71 | 1023.0 |
| 20260905180044 | 63 | 221 | 9.6 | 16.5 | 0.00 | 0.00 | 0.00 | 71 | 1023.2 |
| 20260905175531 | 63 | 237 | 5.2 | 10.4 | 0.00 | 0.00 | 0.00 | 70 | 1023.0 |
| 20260905175034 | 64 | 226 | 7.0 | 12.2 | 0.00 | 0.00 | 0.00 | 70 | 1022.9 |
| 20260905174007 | 64 | 235 | 3.5 | 12.2 | 0.00 | 0.00 | 0.00 | 65 | 1023.0 |
| 20260905173505 | 64 | 221 | 4.3 | 12.2 | 0.00 | 0.00 | 0.00 | 65 | 1022.8 |
| 20260905173005 | 65 | 228 | 5.2 | 15.6 | 0.00 | 0.00 | 0.00 | 65 | 1022.8 |
| 20260905172503 | 65 | 240 | 6.1 | 15.6 | 0.00 | 0.00 | 0.00 | 64 | 1022.7 |
| 20260905171959 | 65 | 230 | 5.2 | 13.9 | 0.00 | 0.00 | 0.00 | 64 | 1022.6 |
| 20260905171448 | 65 | 264 | 5.2 | 11.3 | 0.00 | 0.00 | 0.00 | 64 | 1022.5 |
| 20260905170947 | 65 | 248 | 4.3 | 7.8 | 0.00 | 0.00 | 0.00 | 64 | 1022.5 |
| 20260905170446 | 65 | 200 | 4.3 | 9.6 | 0.00 | 0.00 | 0.00 | 63 | 1022.5 |
| 20260905165935 | 66 | 251 | 4.3 | 9.6 | 0.00 | 0.00 | 0.00 | 62 | 1022.5 |
| 20260905165434 | 66 | 226 | 4.3 | 9.6 | 0.00 | 0.00 | 0.00 | 62 | 1022.4 |
| 20260905164931 | 66 | 207 | 5.2 | 9.6 | 0.00 | 0.00 | 0.00 | 62 | 1022.3 |
| 20260905164427 | 66 | 292 | 5.2 | 9.6 | 0.00 | 0.00 | 0.00 | 63 | 1022.2 |
| 20260905163924 | 66 | 296 | 5.2 | 10.4 | 0.00 | 0.00 | 0.00 | 62 | 1022.1 |
| 20260905163422 | 66 | 303 | 4.3 | 12.2 | 0.00 | 0.00 | 0.00 | 62 | 1022.1 |
| 20260905162908 | 66 | 302 | 5.2 | 12.2 | 0.00 | 0.00 | 0.00 | 62 | 1022.3 |
| 20260905162406 | 66 | 233 | 1.7 | 13.0 | 0.00 | 0.00 | 0.00 | 62 | 1022.2 |
| 20260905161904 | 66 | 241 | 6.1 | 13.0 | 0.00 | 0.00 | 0.00 | 62 | 1022.0 |
| 20260905161405 | 66 | 226 | 3.5 | 10.4 | 0.00 | 0.00 | 0.00 | 62 | 1022.0 |
| 20260905160904 | 66 | 241 | 5.2 | 13.9 | 0.00 | 0.00 | 0.00 | 62 | 1022.0 |
| 20260905160348 | 67 | 217 | 5.2 | 13.9 | 0.00 | 0.00 | 0.00 | 61 | 1021.9 |
| 20260905155348 | 67 | 257 | 4.3 | 10.4 | 0.00 | 0.00 | 0.00 | 62 | 1022.0 |
| 20260905154848 | 67 | 234 | 3.5 | 13.0 | 0.00 | 0.00 | 0.00 | 62 | 1022.0 |
| 20260905153848 | 66 | 264 | 7.0 | 13.9 | 0.00 | 0.00 | 0.00 | 61 | 1022.0 |
| 20260905153348 | 66 | 237 | 4.3 | 13.0 | 0.00 | 0.00 | 0.00 | 61 | 1022.0 |
| 20260905152850 | 66 | 264 | 8.7 | 13.0 | 0.00 | 0.00 | 0.00 | 62 | 1021.9 |
| 20260905152349 | 65 | 243 | 5.2 | 13.0 | 0.00 | 0.00 | 0.00 | 64 | 1021.9 |
| 20260905151349 | 66 | 264 | 10.4 | 13.9 | 0.00 | 0.00 | 0.00 | 63 | 1022.0 |
| 20260905150354 | 66 | 233 | 6.1 | 12.2 | 0.00 | 0.00 | 0.00 | 62 | 1022.0 |
| 20260905145348 | 66 | 275 | 7.0 | 13.0 | 0.00 | 0.00 | 0.00 | 62 | 1021.9 |
| 20260905144835 | 66 | 241 | 6.1 | 13.0 | 0.00 | 0.00 | 0.00 | 62 | 1022.0 |
| 20260905144333 | 66 | 261 | 6.1 | 13.0 | 0.00 | 0.00 | 0.00 | 61 | 1021.9 |
| 20260905143833 | 66 | 296 | 7.0 | 13.0 | 0.00 | 0.00 | 0.00 | 62 | 1021.9 |
| 20260905143308 | 66 | 265 | 3.5 | 12.2 | 0.00 | 0.00 | 0.00 | 62 | 1021.8 |
| 20260905142804 | 66 | 278 | 6.1 | 13.0 | 0.00 | 0.00 | 0.00 | 62 | 1021.8 |
| 20260905142301 | 67 | 231 | 5.2 | 13.9 | 0.00 | 0.00 | 0.00 | 60 | 1021.7 |
| 20260905141804 | 67 | 275 | 3.5 | 15.6 | 0.00 | 0.00 | 0.00 | 60 | 1021.7 |
| 20260905141301 | 68 | 251 | 7.8 | 15.6 | 0.00 | 0.00 | 0.00 | 59 | 1021.6 |
| 20260905140802 | 68 | 261 | 7.8 | 17.4 | 0.00 | 0.00 | 0.00 | 59 | 1021.6 |
| 20260905135745 | 68 | 261 | 8.7 | 13.9 | 0.00 | 0.00 | 0.00 | 59 | 1021.4 |
| 20260905135247 | 67 | 278 | 6.1 | 14.8 | 0.00 | 0.00 | 0.00 | 58 | 1021.4 |
| 20260905134746 | 67 | 234 | 7.0 | 14.8 | 0.00 | 0.00 | 0.00 | 58 | 1021.4 |
| 20260905134249 | 67 | 258 | 8.7 | 14.8 | 0.00 | 0.00 | 0.00 | 58 | 1021.4 |
| 20260905133246 | 68 | 262 | 8.7 | 17.4 | 0.00 | 0.00 | 0.00 | 61 | 1021.4 |
| 20260905132747 | 67 | 238 | 5.2 | 14.8 | 0.00 | 0.00 | 0.00 | 61 | 1021.4 |
| 20260905132248 | 67 | 302 | 5.2 | 13.9 | 0.00 | 0.00 | 0.00 | 59 | 1021.3 |
| 20260905131747 | 68 | 265 | 6.1 | 14.8 | 0.00 | 0.00 | 0.00 | 59 | 1021.3 |
| 20260905131246 | 68 | 258 | 7.8 | 14.8 | 0.00 | 0.00 | 0.00 | 60 | 1021.2 |
| 20260905130747 | 67 | 271 | 7.0 | 16.5 | 0.00 | 0.00 | 0.00 | 61 | 1021.1 |
| 20260905130250 | 67 | 212 | 8.7 | 16.5 | 0.00 | 0.00 | 0.00 | 62 | 1021.1 |